Location: ActonStarParty
(42.4766°N, 71.4538°W)
Time: 17:59:06
(UTC-04:00)

Cosmos 1300 - Visible Passes

Search period start: 25 August 2016 00:00
Search period end: 04 September 2016 00:00
Orbit: 516 x 518 km, 82.5° (Epoch: 24 August)

Date Brightness Start Highest point End Pass type
(mag) Time Alt. Az. Time Alt. Az. Time Alt. Az.
25 Aug 5.3 02:33:22 18° ENE 02:33:22 18° ENE 02:34:54 10° NE visible
25 Aug 4.3 04:08:26 22° NW 04:08:26 22° NW 04:10:40 10° NNW visible
26 Aug 5.7 02:19:14 14° NE 02:19:14 14° NE 02:20:09 10° NE visible
26 Aug 4.4 03:54:17 22° NW 03:54:17 22° NW 03:56:18 10° NNW visible
27 Aug 5.9 02:05:04 11° NE 02:05:04 11° NE 02:05:18 10° NE visible
27 Aug 4.6 03:40:07 22° NNW 03:40:07 22° NNW 03:41:52 10° N visible
28 Aug 4.8 03:25:56 21° NNW 03:25:56 21° NNW 03:27:26 10° N visible
29 Aug 5.0 03:11:44 19° N 03:11:44 19° N 03:12:58 10° N visible
30 Aug 5.3 02:57:31 17° N 02:57:31 17° N 02:58:29 10° N visible
31 Aug 5.6 02:43:18 15° N 02:43:18 15° N 02:43:58 10° N visible
01 Sep 5.8 02:29:03 12° N 02:29:03 12° N 02:29:25 10° N visible
02 Sep 6.0 02:14:48 10° NNE 02:14:48 10° NNE 02:14:53 10° NNE visible
